Weather History for KDEN - July, 2014

Change the Weather History Date:

Saturday, July 12, 2014

  Actual Average Record
Temperature  
Mean Temperature 73 °F 74 °F  
Max Temperature 86 °F 90 °F 101 °F (1954)
Min Temperature 59 °F 59 °F 48 °F (1961)
Degree Days  
Heating Degree Days 0 0  
Month to date heating degree days 0 1  
Since 1 June heating degree days 30 63  
Since 1 July heating degree days 0 1  
Cooling Degree Days 8 9  
Month to date cooling degree days 127 101  
Year to date cooling degree days 254 256  
Since 1 June cooling degree days 233 234  
Growing Degree Days 23 (Base 50)    
Moisture  
Dew Point 61 °F    
Average Humidity 69    
Maximum Humidity 97    
Minimum Humidity 40    
Precipitation  
Precipitation 0.30 in 0.06 in 0.63 in (1935)
Month to date precipitation 0.57 0.69  
Year to date precipitation 9.10 8.20  
Snow  
Snow 0.00 in - - ()
Month to date snowfall 0  
Since 1 June snowfall 0  
Since 1 July snowfall 0  
Snow Depth 0.00 in    
Sea Level Pressure  
Sea Level Pressure 30.11 in    
Wind  
Wind Speed 9 mph (WNW)    
Max Wind Speed 31 mph    
Max Gust Speed 37 mph    
Visibility 9 miles    
Events Fog , Rain , Thunderstorm    
T = Trace of Precipitation, MM = Missing Value Source: NWS Daily Summary

Daily Weather History Graph

Daily Weather History Graph

Search for Another Location

Airport or City:

Trip Planner

Search our weather history database for the weather conditions in past years. The results will help you decide how hot, cold, wet, or windy it might be!

Date:

Astronomy

Jul. 12, 2014 Rise Set
Actual Time 5:40 AM MDT 8:27 PM MDT
Civil Twilight 5:08 AM MDT 8:59 PM MDT
Nautical Twilight 4:28 AM MDT 9:39 PM MDT
Astronomical Twilight 3:42 AM MDT 10:25 PM MDT
Moon 8:31 PM MDT (7/12) 6:02 AM MDT (7/12)
Length of Visible Light 15h 50m
Length of Day
14h 46m
Full, 100% of the Moon is Illuminated
Jul 12
Full
Jul 18
Last Quarter
Jul 26
New
Aug 3
First Quarter
Aug 10
Full

Hourly Weather History & Observations

Time (MDT) Temp. Heat Index Dew Point Humidity Pressure Visibility Wind Dir Wind Speed Gust Speed Precip Events Conditions
12:53 AM 64.9 °F - 61.0 °F 87% 29.99 in 10.0 mi North 8.1 mph - 0.00 in Rain Light Rain
1:38 AM 64.9 °F - 60.1 °F 84% 30.24 in 10.0 mi NNW 8.1 mph - 0.00 in   Overcast
1:53 AM 64.9 °F - 61.0 °F 87% 29.98 in 10.0 mi NW 9.2 mph - 0.00 in   Overcast
2:53 AM 63.0 °F - 61.0 °F 93% 29.97 in 9.0 mi WNW 8.1 mph - N/A   Scattered Clouds
3:14 AM 63.0 °F - 61.0 °F 93% 30.22 in 7.0 mi WNW 6.9 mph - N/A   Scattered Clouds
3:53 AM 63.0 °F - 60.1 °F 90% 29.96 in 8.0 mi West 6.9 mph - N/A   Scattered Clouds
4:53 AM 62.1 °F - 60.1 °F 93% 30.01 in 6.0 mi SW 3.5 mph - N/A   Partly Cloudy
5:53 AM 60.1 °F - 59.0 °F 96% 30.02 in 2.5 mi SSE 4.6 mph - N/A   Mostly Cloudy
6:03 AM 60.1 °F - 59.0 °F 96% 30.21 in 6.0 mi SSW 3.5 mph - N/A   Mostly Cloudy
6:53 AM 63.0 °F - 60.1 °F 90% 30.01 in 6.0 mi SSW 4.6 mph - N/A   Mostly Cloudy
7:53 AM 71.1 °F - 60.1 °F 68% 30.00 in 10.0 mi NNW 6.9 mph - N/A   Mostly Cloudy
8:29 AM 70.0 °F - 63.0 °F 78% 30.24 in 9.0 mi NNE 10.4 mph - N/A   Scattered Clouds
8:53 AM 69.1 °F - 63.0 °F 81% 30.03 in 6.0 mi NNE 12.7 mph - N/A   Scattered Clouds
9:02 AM 68.0 °F - 62.1 °F 81% 30.25 in 5.0 mi NNE 12.7 mph - N/A   Mostly Cloudy
9:42 AM 69.1 °F - 62.1 °F 78% 30.26 in 10.0 mi NE 10.4 mph - N/A Fog Mostly Cloudy
9:53 AM 70.0 °F - 62.1 °F 76% 30.05 in 10.0 mi NNE 11.5 mph - N/A Fog Mostly Cloudy
11:53 AM 73.0 °F - 61.0 °F 66% 30.08 in 10.0 mi Variable 3.5 mph - N/A   Mostly Cloudy
12:53 PM 78.1 °F - 60.1 °F 54% 30.06 in 10.0 mi NE 9.2 mph - N/A   Mostly Cloudy
1:53 PM 80.1 °F 80.9 °F 60.1 °F 50% 30.04 in 10.0 mi Variable 5.8 mph - N/A   Mostly Cloudy
2:53 PM 80.1 °F 80.4 °F 57.0 °F 45% 30.03 in 10.0 mi North 8.1 mph - N/A   Mostly Cloudy
3:53 PM 84.9 °F 84.2 °F 57.9 °F 40% 30.00 in 10.0 mi NNE 13.8 mph 19.6 mph N/A   Mostly Cloudy
4:34 PM 80.1 °F 80.4 °F 57.0 °F 45% 30.25 in 10.0 mi North 21.9 mph 31.1 mph N/A Thunderstorm Thunderstorm
4:53 PM 70.0 °F - 57.9 °F 65% 30.08 in 10.0 mi North 24.2 mph 32.2 mph 0.00 in Rain , Thunderstorm Light Thunderstorms and Rain
5:42 PM 69.1 °F - 63.0 °F 81% 30.29 in 10.0 mi Calm Calm - 0.27 in Thunderstorm Thunderstorm
5:53 PM 70.0 °F - 62.1 °F 76% 30.11 in 10.0 mi Calm Calm - 0.27 in Thunderstorm Thunderstorm
6:14 PM 66.9 °F - 63.0 °F 87% 30.30 in 10.0 mi West 6.9 mph - N/A   Mostly Cloudy
6:25 PM 69.1 °F - 61.0 °F 75% 30.30 in 10.0 mi West 6.9 mph - N/A Thunderstorm Thunderstorm
6:29 PM 69.1 °F - 61.0 °F 75% 30.30 in 9.0 mi WNW 10.4 mph - 0.00 in Rain , Thunderstorm Light Thunderstorms and Rain
6:49 PM 66.2 °F - 62.6 °F 88% 30.29 in 10.0 mi SW 6.9 mph - 0.03 in Rain Light Rain
6:53 PM 66.9 °F - 62.1 °F 84% 30.09 in 10.0 mi South 3.5 mph - 0.03 in   Overcast
7:53 PM 66.0 °F - 62.1 °F 87% 30.12 in 10.0 mi SW 13.8 mph - 0.00 in   Mostly Cloudy
8:53 PM 64.9 °F - 60.1 °F 84% 30.14 in 10.0 mi SW 10.4 mph - 0.00 in   Mostly Cloudy
9:53 PM 64.9 °F - 60.1 °F 84% 30.14 in 10.0 mi SW 12.7 mph - N/A   Mostly Cloudy
10:53 PM 64.0 °F - 59.0 °F 84% 30.15 in 10.0 mi SW 11.5 mph - N/A   Mostly Cloudy
11:53 PM 64.0 °F - 59.0 °F 84% 30.14 in 10.0 mi SW 9.2 mph - N/A   Scattered Clouds